, AK

(GMT )
Portage Glacier

Weather History for PATO - March, 2013

Change the Weather History Date:

Thursday, March 7, 2013

  Actual Average Record
Temperature  
Mean Temperature 34 °F -  
Max Temperature 37 °F - - ()
Min Temperature 32 °F - - ()
Degree Days  
Heating Degree Days 30    
Moisture  
Dew Point 30 °F    
Average Humidity 83    
Maximum Humidity 96    
Minimum Humidity 75    
Precipitation  
Precipitation 1.37 in - - ()
Sea Level Pressure  
Sea Level Pressure 29.73 in    
Wind  
Wind Speed 19 mph (ESE)    
Max Wind Speed 37 mph    
Max Gust Speed 76 mph    
Visibility 2 miles    
Events Fog , Snow    
Averages and records for this station are not official NWS values.
T = Trace of Precipitation, MM = Missing Value Source: NWS Daily Summary

Daily Weather History Graph

Daily Weather History Graph

Search for Another Location

Airport or City:

Trip Planner

Search our weather history database for the weather conditions in past years. The results will help you decide how hot, cold, wet, or windy it might be!

Date:

Astronomy

Mar. 07, 2013 Rise Set
Actual Time 7:35 AM AKST 6:38 PM AKST
Civil Twilight 6:53 AM AKST 7:20 PM AKST
Nautical Twilight 6:03 AM AKST 8:10 PM AKST
Astronomical Twilight 5:12 AM AKST 9:02 PM AKST
Moon 5:42 AM AKST (3/7) 1:41 PM AKST (3/7)
Length of Visible Light 12h 27m
Length of Day
11h 02m
Waning Crescent, 19% of the Moon is Illuminated
Mar 7
Waning Crescent
Mar 11
New
Mar 19
First Quarter
Mar 27
Full
Apr 2
Last Quarter

Hourly Weather History & Observations

Time (AKST) Temp. Windchill Dew Point Humidity Pressure Visibility Wind Dir Wind Speed Gust Speed Precip Events Conditions
12:53 AM 33.1 °F 25.5 °F 28.0 °F 82% 29.93 in 10.0 mi SE 9.2 mph - N/A   Overcast
1:24 AM 33.1 °F 26.1 °F 28.0 °F 82% 29.92 in 10.0 mi SSE 8.1 mph - N/A   Overcast
1:53 AM 33.1 °F 24.4 °F 28.0 °F 82% 29.91 in 10.0 mi SSE 11.5 mph 21.9 mph 0.00 in   Overcast
3:49 AM 33.8 °F 24.3 °F 28.4 °F 81% 29.85 in 2.5 mi SE 13.8 mph 25.3 mph 0.00 in Snow Light Snow
3:50 AM 33.1 °F 23.4 °F 28.9 °F 85% 29.85 in 2.5 mi SE 13.8 mph 25.3 mph 0.00 in Snow Light Snow
4:17 AM 32.0 °F 22.1 °F 28.0 °F 85% 29.83 in 3.0 mi SE 13.8 mph 28.8 mph 0.00 in Snow Light Snow
4:25 AM 33.1 °F 24.9 °F 28.0 °F 82% 29.83 in 4.0 mi SE 10.4 mph 26.5 mph 0.00 in Snow Light Snow
4:53 AM 34.0 °F 23.0 °F 27.0 °F 75% 29.82 in 8.0 mi ESE 18.4 mph 35.7 mph 0.00 in   Overcast
5:02 AM 34.0 °F 23.0 °F 27.0 °F 75% 29.81 in 8.0 mi ESE 18.4 mph 29.9 mph 0.00 in   Overcast
5:53 AM 34.0 °F 22.4 °F 27.0 °F 75% 29.80 in 4.0 mi ESE 20.7 mph 38.0 mph 0.00 in Snow Light Snow
6:11 AM 34.0 °F 21.5 °F 28.0 °F 79% 29.79 in 2.5 mi ESE 24.2 mph 41.4 mph 0.00 in Snow Light Snow
6:15 AM 35.1 °F 23.5 °F 28.0 °F 76% 29.80 in 3.0 mi ESE 21.9 mph 39.1 mph 0.00 in Snow Light Snow
6:24 AM 33.1 °F 22.6 °F 28.0 °F 82% 29.79 in 1.8 mi ESE 16.1 mph 33.4 mph 0.00 in Snow Light Snow
6:32 AM 35.1 °F 24.8 °F 28.0 °F 76% 29.80 in 2.5 mi ESE 17.3 mph 33.4 mph 0.00 in Snow Light Snow
6:43 AM 34.0 °F 21.5 °F 28.9 °F 82% 29.78 in 1.5 mi ESE 24.2 mph 35.7 mph 0.00 in Snow Light Snow
6:53 AM 34.0 °F 22.4 °F 28.0 °F 79% 29.79 in 2.0 mi ESE 20.7 mph 38.0 mph 0.00 in Snow Light Snow
7:18 AM 34.0 °F 22.7 °F 28.9 °F 82% 29.78 in 1.8 mi ESE 19.6 mph 38.0 mph 0.00 in Snow Light Snow
7:41 AM 34.0 °F 22.4 °F 28.9 °F 82% 29.79 in 1.2 mi East 20.7 mph 34.5 mph 0.00 in Snow Light Snow
7:53 AM 34.0 °F 21.5 °F 28.9 °F 82% 29.79 in 1.2 mi ESE 24.2 mph 35.7 mph 0.00 in Snow Light Snow
8:13 AM 33.1 °F 21.5 °F 30.0 °F 89% 29.78 in 0.5 mi East 19.6 mph 31.1 mph 0.01 in Fog , Snow Light Snow
8:53 AM 33.1 °F 20.3 °F 30.0 °F 89% 29.76 in 0.8 mi ESE 24.2 mph 41.4 mph 0.03 in Snow Light Snow
9:53 AM 35.1 °F 23.5 °F 30.0 °F 82% 29.76 in 1.0 mi ESE 21.9 mph 48.3 mph 0.01 in Snow Light Snow
10:35 AM 35.1 °F 22.7 °F 30.9 °F 85% 29.73 in 2.0 mi East 25.3 mph 52.9 mph 0.01 in Snow Light Snow
10:44 AM 35.1 °F 23.5 °F 30.9 °F 85% 29.74 in 1.2 mi East 21.9 mph 63.3 mph 0.01 in Snow Light Snow
10:53 AM 35.1 °F 23.5 °F 30.9 °F 85% 29.75 in 1.0 mi ESE 21.9 mph 43.7 mph 0.02 in Snow Light Snow
10:57 AM 35.1 °F 24.8 °F 30.9 °F 85% 29.73 in 1.0 mi ESE 17.3 mph 43.7 mph 0.00 in Snow Light Snow
11:04 AM 36.0 °F 23.7 °F 30.9 °F 82% 29.73 in 1.5 mi East 26.5 mph 62.1 mph 0.01 in Snow Light Snow
11:10 AM 36.0 °F 23.0 °F 30.9 °F 82% 29.73 in 2.0 mi East 29.9 mph 76.0 mph 0.01 in Snow Light Snow
11:36 AM 36.0 °F 25.3 °F 30.9 °F 82% 29.73 in 1.2 mi East 19.6 mph 51.8 mph 0.01 in Snow Light Snow
11:53 AM 35.1 °F 23.3 °F 30.9 °F 85% 29.74 in 1.0 mi East 23.0 mph 49.5 mph 0.02 in Snow Light Snow
12:26 PM 36.0 °F 23.7 °F 30.9 °F 82% 29.73 in 2.0 mi ESE 26.5 mph 49.5 mph 0.02 in Snow Light Snow
12:40 PM 36.0 °F 25.6 °F 30.0 °F 79% 29.72 in 4.0 mi ESE 18.4 mph 51.8 mph 0.02 in   Overcast
12:53 PM 37.0 °F 25.6 °F 30.0 °F 76% 29.73 in 3.0 mi East 24.2 mph 43.7 mph 0.02 in Snow Light Snow
1:36 PM 36.0 °F 25.3 °F 30.0 °F 79% 29.69 in 1.8 mi NNE 19.6 mph 46.0 mph 0.01 in Snow Light Snow
1:53 PM 36.0 °F 23.5 °F 30.0 °F 79% 29.68 in 1.2 mi ESE 27.6 mph 54.1 mph 0.02 in Snow Light Snow
2:11 PM 36.0 °F 25.3 °F 30.0 °F 79% 29.65 in 1.0 mi ESE 19.6 mph 62.1 mph 0.01 in Snow Light Snow
2:40 PM 36.0 °F 24.2 °F 30.9 °F 82% 29.65 in 0.8 mi East 24.2 mph 57.5 mph 0.05 in Snow Light Snow
2:53 PM 36.0 °F 23.0 °F 33.1 °F 89% 29.66 in 0.8 mi East 29.9 mph 69.0 mph 0.07 in Snow Light Snow
3:07 PM 36.0 °F 23.0 °F 32.0 °F 86% 29.61 in 1.0 mi ENE 29.9 mph 59.8 mph 0.02 in Snow Light Snow
3:17 PM 36.0 °F 21.8 °F 30.9 °F 82% 29.61 in 0.8 mi East 36.8 mph 73.6 mph 0.03 in Snow Light Snow
3:53 PM 35.1 °F 20.6 °F 32.0 °F 89% 29.62 in 0.5 mi East 36.8 mph 69.0 mph 0.12 in Fog , Snow Snow
4:25 PM 35.1 °F 21.8 °F 32.0 °F 89% 29.62 in 0.5 mi East 29.9 mph 69.0 mph 0.08 in Fog , Snow Snow
4:53 PM 36.0 °F 22.2 °F 32.0 °F 86% 29.62 in 0.8 mi East 34.5 mph 61.0 mph 0.14 in Snow Light Snow
5:27 PM 35.1 °F 21.6 °F 34.0 °F 96% 29.62 in 0.8 mi East 31.1 mph 61.0 mph 0.09 in Snow Light Snow
5:53 PM 36.0 °F 22.4 °F 32.0 °F 86% 29.65 in 0.8 mi East 33.4 mph 61.0 mph 0.16 in Snow Light Snow
6:17 PM 36.0 °F 23.5 °F 32.0 °F 86% 29.64 in 1.2 mi East 27.6 mph 63.3 mph 0.07 in Snow Light Snow
6:53 PM 36.0 °F 22.6 °F 32.0 °F 86% 29.64 in 1.5 mi ESE 32.2 mph 61.0 mph 0.17 in Snow Light Snow
7:53 PM 35.1 °F 21.2 °F 30.9 °F 85% 29.64 in 1.2 mi ESE 33.4 mph 61.0 mph 0.14 in Snow Light Snow
8:38 PM 35.1 °F 25.9 °F 30.9 °F 85% 29.64 in 1.0 mi East 13.8 mph 40.3 mph 0.10 in Snow Light Snow
8:48 PM 35.6 °F 25.9 °F 30.2 °F 81% 29.65 in 1.2 mi SE 16.1 mph 48.3 mph 0.12 in Snow Light Snow
8:53 PM 35.1 °F 22.5 °F 30.9 °F 85% 29.66 in 1.2 mi ESE 26.5 mph 48.3 mph 0.13 in Snow Light Snow
9:43 PM 35.1 °F 21.4 °F 30.9 °F 85% 29.66 in 1.5 mi East 32.2 mph 55.2 mph 0.10 in Snow Light Snow
9:53 PM 35.1 °F 22.5 °F 32.0 °F 89% 29.66 in 1.5 mi East 26.5 mph 61.0 mph 0.12 in Snow Light Snow
10:53 PM 35.1 °F 23.3 °F 30.9 °F 85% 29.66 in 1.5 mi ESE 23.0 mph 56.4 mph 0.10 in Snow Light Snow
11:53 PM 36.0 °F 23.7 °F 30.9 °F 82% 29.67 in 1.8 mi ESE 26.5 mph 48.3 mph 0.10 in Snow Light Snow